This is the latest recevied weather packets stored in our database for station/object IW7DVM-13. If no packets are shown the sender has not sent any weather packets the latest 1 day(s).
| Time | Temp. | Humidity | Pressure | Rain* | Wind** | Luminosity | Snow |
|---|---|---|---|---|---|---|---|
| 1777987803 | 18.89° C | 71% | 1011.6 hPa | 0 mm | 1.34 m/s, 137° | - | - |
| 1777987503 | 18.89° C | 71% | 1011.5 hPa | 0 mm | 1.34 m/s, 135° | - | - |
| 1777987203 | 18.89° C | 71% | 1011.5 hPa | 0 mm | 1.34 m/s, 132° | - | - |
| 1777986903 | 18.89° C | 71% | 1011.5 hPa | 0 mm | 0.89 m/s, 132° | - | - |
| 1777986603 | 18.33° C | 71% | 1011.4 hPa | 0 mm | 1.34 m/s, 121° | - | - |
| 1777986303 | 18.33° C | 71% | 1011.6 hPa | 0 mm | 1.79 m/s, 130° | - | - |
| 1777986003 | 18.33° C | 71% | 1011.7 hPa | 0 mm | 1.34 m/s, 134° | - | - |
| 1777985705 | 18.33° C | 71% | 1011.7 hPa | 0 mm | 1.34 m/s, 137° | - | - |
| 1777985403 | 18.33° C | 71% | 1011.9 hPa | 0 mm | 1.79 m/s, 140° | - | - |
| 1777985103 | 18.33° C | 71% | 1011.9 hPa | 0 mm | 1.34 m/s, 147° | - | - |
| 1777984803 | 18.33° C | 71% | 1012 hPa | 0 mm | 0.89 m/s, 140° | - | - |
| 1777984503 | 18.33° C | 71% | 1012 hPa | 0 mm | 0.89 m/s, 136° | - | - |
| 1777984203 | 18.33° C | 71% | 1012.2 hPa | 0 mm | 1.34 m/s, 139° | - | - |
| 1777983903 | 18.33° C | 71% | 1012.2 hPa | 0 mm | 1.34 m/s, 145° | - | - |
| 1777983603 | 18.33° C | 71% | 1012.2 hPa | 0 mm | 1.79 m/s, 148° | - | - |
| 1777983303 | 18.89° C | 71% | 1012.3 hPa | 0 mm | 1.34 m/s, 152° | - | - |
| 1777983003 | 18.89° C | 71% | 1012.2 hPa | 0 mm | 1.79 m/s, 142° | - | - |
| 1777982703 | 18.89° C | 71% | 1012.2 hPa | 0 mm | 1.34 m/s, 128° | - | - |
| 1777982403 | 18.89° C | 71% | 1012.2 hPa | 0 mm | 1.34 m/s, 144° | - | - |
| 1777982103 | 18.89° C | 71% | 1012.2 hPa | 0 mm | 0.89 m/s, 149° | - | - |
| 1777981803 | 18.89° C | 71% | 1012.2 hPa | 0 mm | 0.89 m/s, 147° | - | - |
| 1777981503 | 18.89° C | 71% | 1012.1 hPa | 0 mm | 1.79 m/s, 143° | - | - |
| 1777981203 | 18.89° C | 71% | 1012 hPa | 0 mm | 2.24 m/s, 160° | - | - |
| 1777980903 | 19.44° C | 71% | 1012.2 hPa | 0 mm | 1.79 m/s, 148° | - | - |
| 1777980603 | 19.44° C | 71% | 1012.1 hPa | 0 mm | 1.79 m/s, 160° | - | - |
* Rain latest hour (hover to see other rain measurements)
** Current wind speed in m/s (hover to see current wind gust speed)